Back to catalog

NOAA 16 DEB

AlivePO
NORAD 41293·DEBRIS·🇺🇸 United States

Launched Sep 21, 2000 from Vandenberg Space Force Base

Loading…

Next Passes (next 24 hours)

TLE

FreshSource: Space-Track

Epoch: Sep 14, 2026, 13:30 UTC

1 41293U 00055GV  26257.56277573  .00007731  00000-0  22469-2 0  9996
2 41293  98.8924  10.3979 0018111 268.5968  91.3146 14.44475478553696

Track NOAA 16 DEB in real time with AllMySat

Download on the App Store